Wind_Speed
16 15 10 3 5 6 7 11 12 8 12 19 17 12 13 10 8 8 8 9 6 7 7 8 10 12 12 11 7 9 9 10 10 6 7 7 8 7 8 8 9 11 10 10
20 19 8 5 5 8 4 6 2 6 5 12 15 10 15 12 8 7 8 9 10 9 5 4 7 11 8 8 7 8 9 10 11 12 10 8 11 9 8 7 9 11 10 8
21 14 11 6 4 3 1 4 5 6 4 7 11 11 12 11 6 3 5 9 14 13 10 5 4 4 6 3 3 5 6 7 9 12 12 12 12 11 9 8 9 9 8 7
22 22 10 5 5 4 4 2 4 7 5 4 5 4 8 6 3 3 5 4 12 15 12 12 5 7 7 6 5 5 6 6 7 8 8 7 7 8 10 11 9 7 7 8
16 11 7 4 2 4 2 6 3 5 10 8 5 2 4 7 7 8 6 6 6 9 20 14 10 8 10 11 11 10 9 10 11 15 15 11 13 10 7 7 7 8 7 7
21 9 7 6 4 5 9 4 6 9 6 1 2 2 2 8 8 7 4 6 6 8 10 13 12 10 12 10 13 15 17 15 15 17 19 17 25 20 14 11 7 10 11 8
16 12 18 10 6 5 9 8 3 2 3 4 3 3 5 4 5 8 6 4 7 12 8 5 4 5 6 6 11 17 25 24 21 23 26 32 34 26 22 16 12 10 13 14
9 10 15 12 12 10 10 8 6 4 3 3 1 2 4 5 3 3 6 3 9 12 9 4 4 2 2 5 8 18 22 19 16 16 21 28 33 30 25 20 16 14 18 16
7 5 1 9 19 17 12 5 7 4 3 1 2 5 7 8 3 5 6 7 7 9 4 1 5 5 4 5 12 17 21 18 15 20 24 22 21 18 23 20 19 19 20 21
3 3 2 8 4 7 11 7 2 2 4 3 4 6 8 5 2 6 7 7 10 8 2 14 13 10 8 10 16 20 27 24 18 17 19 18 20 19 21 22 19 19 18 20
11 9 3 6 3 1 6 5 4 4 3 6 2 3 4 2 3 4 5 7 5 8 14 14 22 14 11 13 18 22 26 21 19 20 18 20 19 18 19 20 19 18 21 23
17 5 3 8 12 11 8 7 4 4 4 3 2 3 5 5 6 8 8 12 6 4 4 10 10 12 15 17 18 21 24 25 20 18 19 21 20 19 20 20 21 23 23 25
18 11 11 3 6 6 5 5 4 5 4 5 4 4 10 10 9 11 13 15 12 8 8 8 11 15 17 16 17 21 29 31 23 17 18 19 19 19 20 23 24 25 24 24
18 19 14 15 7 6 5 4 2 2 5 7 11 9 12 14 13 10 11 10 12 12 12 14 15 16 18 20 22 22 29 30 18 19 17 19 18 19 22 21 23 27 29 27
18 15 12 13 11 7 5 4 4 2 4 6 7 12 12 16 17 12 11 13 12 14 16 17 17 19 22 23 28 31 30 22 22 19 26 23 26 30 33 28 27 25 23 23
17 17 14 13 9 4 2 2 5 7 10 10 11 14 14 14 14 14 15 16 15 15 18 19 22 24 28 32 32 32 33 27 28 26 31 27 28 31 34 37 37 32 27 29
13 19 15 9 7 4 5 6 7 10 11 11 16 13 16 15 14 13 13 13 15 18 21 25 28 31 34 35 37 31 28 28 29 30 31 31 32 32 31 32 38 37 40 40
12 14 8 8 6 2 5 6 7 8 8 16 16 12 14 13 13 12 13 17 21 23 26 31 32 32 33 34 36 39 41 42 41 40 38 38 40 41 41 37 37 40 41 42
9 8 6 5 4 4 7 11 6 4 4 11 14 14 15 13 13 14 15 18 22 26 30 32 35 39 39 39 39 40 40 42 43 42 43 43 42 41 38 38 38 37 34 35
10 9 8 7 4 7 9 11 11 11 10 14 14 12 11 12 14 16 21 26 30 34 35 33 34 36 35 35 35 34 32 33 34 36 38 40 45 49 47 45 42 40 39 38
13 11 10 10 6 4 10 11 16 10 12 6 15 15 14 17 20 22 27 30 30 29 31 32 32 34 34 34 35 33 32 31 31 31 32 32 34 36 40 50 50 47 40 43
14 12 10 9 7 6 10 10 14 11 10 8 7 12 16 18 21 25 26 26 27 30 30 31 32 31 31 32 32 31 33 33 34 34 33 35 36 36 32 32 45 51 43 44
12 12 12 10 7 7 8 11 10 10 11 10 12 14 18 22 26 25 24 27 29 29 29 29 30 29 29 29 31 32 34 35 36 36 37 38 39 36 34 33 31 37 43 47
16 14 11 10 11 10 10 11 13 12 12 14 15 18 23 26 22 23 25 26 27 27 28 28 28 28 27 28 31 33 34 35 37 38 40 42 42 40 38 35 34 32 32 35
11 9 9 10 13 14 13 11 12 12 14 16 19 23 23 21 22 24 24 26 26 24 24 25 25 26 27 28 30 33 36 38 39 41 42 41 42 40 39 38 35 35 32 31
11 10 11 12 15 12 11 10 11 13 15 19 23 24 20 21 22 22 23 22 20 20 23 23 24 26 27 29 33 35 37 39 40 41 38 37 37 37 37 35 29 31 30 28
Wind_Direction
217 219 216 226 332 335 282 290 296 252 231 232 251 271 279 272 285 282 261 247 198 149 143 124 106 86 74 73 55 50 35 28 19 13 357 342 320 327 321 328 318 307 297 295
214 222 217 248 310 328 287 312 10 128 190 223 240 264 262 255 302 299 280 261 246 215 180 132 101 73 79 65 60 37 26 20 14 12 6 339 322 319 326 325 320 313 307 311
213 214 223 258 280 296 316 159 104 110 202 244 257 278 258 276 293 226 291 252 249 249 252 244 5 43 36 59 26 11 23 12 7 4 5 2 352 335 318 324 317 310 312 295
227 228 266 240 206 282 209 175 104 48 342 252 213 197 241 257 229 207 186 231 243 248 254 263 281 6 358 356 330 323 334 327 322 322 325 332 341 341 324 321 317 302 297 289
214 208 205 196 269 318 272 224 250 321 314 277 262 192 212 217 218 223 206 164 169 240 246 250 272 301 323 325 332 310 297 291 296 318 308 308 317 317 299 293 307 295 287 285
218 216 199 204 258 291 227 215 288 293 292 27 324 172 239 201 201 216 257 222 200 202 220 240 253 280 306 308 312 312 314 290 285 270 316 309 318 287 288 287 277 279 276 272
230 203 200 235 251 259 233 263 307 13 23 215 302 216 222 225 257 258 226 190 162 159 165 168 220 318 295 323 323 335 320 316 305 290 296 301 309 276 272 266 263 261 273 277
187 208 223 247 251 248 258 245 222 175 200 272 228 228 213 262 314 256 164 146 149 147 136 128 175 154 283 320 337 0 344 308 286 290 319 315 312 252 252 260 266 273 273 266
180 209 157 285 248 250 257 225 191 178 134 292 246 259 266 255 278 185 185 171 147 131 23 283 199 205 230 18 357 345 345 331 303 297 301 286 291 241 247 258 259 257 265 269
131 268 42 39 91 229 232 209 172 223 133 220 280 269 266 279 279 215 219 196 172 203 337 209 266 232 237 286 329 343 343 332 312 295 293 277 277 269 254 248 264 268 272 268
221 254 204 357 62 155 205 219 244 170 167 158 180 243 227 197 254 234 237 201 256 262 268 236 240 228 258 286 316 338 340 324 306 291 285 281 276 277 272 272 279 283 271 271
209 241 309 110 108 101 106 102 168 204 197 173 198 226 194 210 196 220 210 220 236 226 248 230 245 257 272 296 311 322 323 322 311 295 286 286 291 287 288 288 288 285 279 273
213 223 232 171 170 159 119 100 81 121 147 179 173 239 209 213 216 228 236 245 239 228 239 267 278 279 289 297 308 316 315 322 311 294 291 300 308 309 304 300 295 289 285 278
232 234 206 200 185 172 152 126 80 338 228 218 222 239 217 213 218 233 258 240 222 219 241 258 263 274 291 302 302 302 302 316 302 295 300 298 298 302 299 300 296 288 286 283
192 180 171 153 155 175 179 190 179 209 280 250 260 229 219 218 227 241 244 228 220 233 250 270 281 289 291 289 294 294 301 305 312 263 309 296 294 293 300 301 279 277 280 284
175 155 166 152 159 174 237 307 262 267 271 247 213 202 199 205 217 229 230 233 246 269 279 291 297 296 295 293 291 292 291 300 291 285 293 277 283 288 295 301 301 292 286 281
177 163 161 152 183 200 248 262 267 260 244 218 199 201 191 200 209 225 240 261 278 282 290 293 292 290 286 284 285 282 278 275 274 275 277 278 281 276 277 279 285 286 291 285
171 155 150 164 188 178 257 258 258 277 276 212 216 233 208 218 234 244 264 278 284 290 292 289 281 277 277 275 278 281 285 286 284 283 282 281 280 279 277 269 272 278 287 293
164 176 165 168 123 164 244 282 278 212 245 217 234 238 219 229 241 263 278 286 287 287 284 282 285 287 290 294 293 293 292 290 289 286 285 284 281 278 275 271 271 272 277 280
199 202 224 188 165 194 284 257 235 234 262 256 239 228 237 256 273 283 293 293 292 293 293 295 298 302 302 301 303 306 303 299 296 292 289 286 281 278 274 270 266 266 271 275
186 195 202 200 211 235 267 258 234 232 279 302 254 250 260 269 277 281 289 292 292 294 300 306 309 307 308 307 306 309 307 305 305 305 303 298 299 293 283 264 265 259 264 269
201 197 195 197 211 248 262 255 241 270 283 300 276 269 276 284 291 295 296 296 302 307 308 307 307 311 311 309 308 307 305 304 303 302 303 303 299 299 302 286 264 264 262 268
201 211 216 217 216 235 259 263 259 254 278 297 302 303 304 305 305 303 305 308 309 308 308 309 314 315 314 314 313 310 308 308 308 309 309 309 306 304 299 295 284 266 265 268
222 215 222 232 249 274 267 246 258 277 295 305 306 307 307 304 304 307 309 310 311 313 312 313 318 317 317 316 315 315 315 313 313 310 307 304 301 296 294 290 283 278 273 271
213 221 249 275 287 281 265 279 287 286 293 300 302 305 307 307 309 311 314 316 318 319 320 325 328 327 326 326 325 324 322 318 314 313 311 307 304 300 292 284 279 272 271 274
230 263 291 293 299 287 288 286 281 282 294 298 302 304 305 309 313 316 319 323 326 326 328 331 332 332 331 331 331 328 324 325 326 326 324 321 315 305 295 286 277 270 270 271
Height
3170 3172 3173 3175 3175 3175 3174 3173 3171 3171 3174 3176 3176 3178 3179 3179 3179 3179 3181 3184 3187 3188 3187 3186 3186 3188 3188 3189 3190 3191 3192 3193 3194 3193 3190 3189 3189 3188 3186 3185 3185 3183 3182 3180
3170 3170 3174 3174 3174 3174 3173 3172 3171 3170 3172 3175 3177 3177 3177 3176 3177 3178 3179 3182 3185 3187 3188 3186 3186 3188 3189 3189 3191 3191 3192 3195 3195 3194 3193 3191 3190 3188 3186 3185 3185 3184 3181 3179
3167 3171 3172 3171 3173 3173 3173 3173 3173 3173 3174 3175 3176 3177 3176 3175 3175 3175 3177 3179 3182 3185 3187 3187 3186 3188 3188 3189 3190 3191 3192 3194 3194 3194 3193 3191 3191 3190 3188 3185 3184 3184 3182 3180
3167 3169 3170 3170 3170 3172 3172 3173 3173 3173 3174 3175 3175 3176 3174 3173 3173 3173 3175 3177 3179 3181 3185 3185 3175 3188 3187 3188 3190 3191 3191 3191 3191 3189 3188 3186 3185 3185 3185 3185 3184 3183 3182 3180
3168 3168 3168 3169 3170 3171 3173 3173 3173 3173 3173 3173 3173 3175 3172 3172 3171 3173 3174 3175 3177 3178 3181 3184 3186 3188 3188 3189 3189 3189 3187 3187 3186 3187 3185 3184 3185 3183 3181 3179 3181 3182 3180 3179
3164 3165 3166 3168 3169 3169 3171 3171 3171 3171 3172 3172 3172 3173 3172 3172 3172 3172 3173 3173 3175 3174 3177 3182 3185 3186 3185 3186 3186 3186 3184 3185 3184 3182 3181 3182 3183 3181 3180 3178 3174 3178 3177 3176
3163 3162 3165 3167 3167 3168 3169 3170 3170 3173 3173 3173 3171 3172 3171 3171 3171 3171 3171 3172 3174 3173 3176 3180 3184 3184 3183 3183 3184 3181 3180 3180 3180 3180 3181 3179 3176 3174 3175 3176 3174 3172 3175 3174
3159 3162 3164 3164 3165 3166 3167 3168 3169 3174 3176 3171 3171 3170 3170 3170 3170 3170 3171 3173 3174 3175 3177 3179 3182 3183 3182 3181 3181 3180 3178 3177 3176 3176 3177 3173 3169 3168 3170 3171 3171 3171 3171 3171
3157 3159 3161 3160 3160 3164 3164 3165 3167 3167 3170 3170 3169 3169 3168 3168 3169 3170 3171 3173 3175 3176 3176 3178 3180 3181 3180 3180 3179 3178 3176 3175 3173 3173 3173 3171 3170 3169 3168 3167 3167 3166 3165 3165
3157 3158 3159 3157 3158 3160 3162 3165 3165 3166 3171 3172 3167 3166 3166 3167 3168 3169 3170 3173 3176 3176 3174 3176 3179 3180 3181 3178 3175 3173 3170 3169 3168 3167 3167 3167 3166 3165 3162 3162 3161 3160 3160 3160
3156 3159 3158 3157 3157 3157 3160 3161 3162 3164 3165 3167 3170 3166 3164 3164 3166 3168 3170 3172 3175 3174 3173 3173 3175 3177 3177 3177 3175 3171 3169 3168 3165 3163 3162 3163 3161 3158 3156 3155 3154 3153 3154 3154
3155 3158 3158 3159 3158 3158 3159 3160 3161 3162 3165 3165 3166 3165 3163 3164 3164 3167 3168 3170 3172 3172 3172 3172 3173 3174 3174 3173 3171 3170 3168 3167 3163 3159 3157 3156 3155 3153 3151 3150 3149 3149 3150 3150
3152 3155 3158 3160 3161 3159 3159 3160 3161 3161 3162 3163 3164 3163 3161 3162 3162 3163 3165 3167 3169 3170 3171 3170 3169 3168 3167 3167 3165 3164 3163 3160 3157 3154 3152 3150 3149 3147 3146 3145 3144 3143 3143 3142
3151 3152 3154 3155 3156 3158 3159 3159 3160 3160 3160 3160 3159 3159 3160 3160 3161 3163 3164 3164 3166 3167 3167 3166 3165 3163 3161 3159 3158 3159 3158 3156 3152 3149 3148 3146 3145 3143 3141 3139 3139 3138 3136 3135
3148 3150 3152 3153 3153 3155 3157 3158 3158 3159 3158 3158 3157 3157 3157 3158 3159 3160 3161 3161 3162 3162 3162 3162 3162 3160 3159 3156 3154 3152 3151 3150 3149 3147 3145 3143 3140 3137 3135 3134 3132 3130 3129 3127
3145 3147 3150 3152 3154 3155 3156 3157 3157 3157 3156 3154 3154 3154 3154 3155 3155 3156 3157 3158 3159 3160 3161 3159 3158 3155 3153 3151 3149 3148 3146 3143 3142 3141 3140 3137 3135 3132 3128 3126 3124 3123 3122 3121
3142 3145 3148 3152 3154 3155 3157 3156 3155 3154 3152 3152 3152 3153 3153 3154 3155 3156 3157 3157 3157 3157 3157 3155 3152 3150 3147 3145 3144 3141 3139 3137 3134 3131 3129 3126 3125 3122 3121 3120 3116 3114 3113 3111
3142 3145 3147 3149 3152 3155 3154 3153 3153 3152 3152 3152 3152 3153 3154 3155 3155 3156 3156 3156 3155 3154 3152 3150 3147 3143 3140 3137 3135 3132 3129 3126 3123 3121 3118 3115 3112 3110 3109 3107 3105 3103 3102 3100
3143 3144 3146 3149 3151 3154 3152 3151 3152 3152 3153 3152 3152 3152 3152 3153 3154 3154 3153 3152 3150 3148 3145 3142 3138 3134 3132 3127 3123 3120 3117 3113 3110 3107 3104 3103 3101 3098 3097 3096 3095 3095 3092 3091
3142 3144 3147 3148 3149 3151 3149 3149 3150 3151 3152 3152 3151 3152 3152 3151 3151 3150 3147 3145 3142 3139 3136 3134 3131 3126 3121 3118 3113 3109 3105 3101 3097 3094 3091 3089 3087 3084 3083 3082 3082 3082 3081 3080
3141 3142 3144 3144 3146 3147 3146 3147 3148 3151 3153 3150 3150 3150 3151 3150 3150 3147 3144 3140 3137 3133 3130 3127 3122 3117 3112 3108 3104 3101 3096 3092 3088 3084 3081 3077 3074 3069 3066 3065 3066 3066 3067 3067
3138 3140 3141 3142 3144 3146 3144 3145 3147 3148 3147 3147 3148 3148 3147 3145 3143 3140 3137 3134 3130 3127 3123 3119 3115 3111 3106 3101 3097 3093 3088 3084 3079 3074 3070 3067 3062 3058 3053 3049 3050 3051 3051 3053
3137 3138 3139 3142 3142 3141 3142 3142 3142 3143 3144 3143 3143 3141 3139 3137 3134 3131 3129 3126 3123 3119 3116 3111 3108 3104 3099 3094 3089 3084 3079 3074 3069 3063 3058 3054 3050 3046 3042 3039 3037 3037 3038 3039
3132 3134 3136 3139 3140 3140 3140 3139 3140 3140 3139 3138 3137 3136 3133 3131 3128 3126 3123 3120 3116 3112 3108 3105 3102 3097 3092 3087 3082 3076 3071 3066 3060 3054 3048 3043 3037 3034 3031 3028 3026 3025 3025 3025
3131 3132 3134 3135 3136 3136 3136 3136 3136 3136 3135 3134 3132 3130 3128 3125 3123 3120 3117 3114 3110 3106 3103 3099 3095 3090 3086 3081 3076 3069 3063 3056 3050 3043 3036 3030 3024 3019 3016 3014 3013 3012 3013 3014
3128 3129 3130 3130 3131 3131 3132 3132 3132 3132 3131 3129 3127 3125 3122 3120 3118 3115 3112 3108 3105 3102 3098 3094 3090 3086 3082 3076 3069 3063 3055 3048 3040 3033 3026 3018 3011 3005 2999 2997 2999 2999 3001 3003